Summit, NJ (07901)

8:36 PM EDT on July 29, 2016 (GMT -0400)
Summit EMS | | Change Station

Elev 387 ft 40.71 °N, 74.36 °W | Updated 2 seconds ago

Overcast
Overcast
80.7 °F
Feels Like 84 °F
N
0.0
Wind Variable Wind from ENE
Gusts 2.0 mph

Today
High -- | Low -- °F
--% Chance of Precip.
Yesterday
High -- | Low -- °F
Precip. -- in
Pressure 29.89 in
Visibility 15.0 miles
Clouds Scattered Clouds 5500 ft
Scattered Clouds 7000 ft
Overcast 9000 ft
Heat Index 84 °F
Dew Point 69 °F
Humidity 68%
Rainfall 0.64 in
Snow Depth Not available.
5:51 AM 8:15 PM
Waning Crescent, 18% visible
METAR KMMU 292345Z 01005KT 15SM SCT055 SCT070 OVC090 24/20 A2989
Pressure 29.89 in
Visibility 15.0 miles
Clouds Scattered Clouds 5500 ft
Scattered Clouds 7000 ft
Overcast 9000 ft
Heat Index 84 °F
Dew Point 69 °F
Humidity 68%
Rainfall 0.64 in
Snow Depth Not available.
5:51 AM 8:15 PM
Waning Crescent, 18% visible
METAR KMMU 292345Z 01005KT 15SM SCT055 SCT070 OVC090 24/20 A2989

10-Day Weather Forecast

Almanac

Astronomy

Jul. 29, 2016 Rise Set
Actual Time
Civil Twilight
Nautical Twilight
Astronomical Twilight
Moon
Length of Visible Light
Length of Day
Tomorrow will be .
, % of the Moon is Illuminated

Today's Extremes

State Highs State Lows

Community

WunderPhotos

Upload Photos

1,928,452 photos uploaded!

WunderBlog® & News

Nearby

Air Quality

  Air Quality AQ Index Pollutant
Not available.

Snow Depth

Station Depth Elevation

Earthquake Activity

City Distance Mag. Time & Date
Minimum magnitude displayed is 2.5.

Coastal Water Temperatures

Place Temperature

Stations

Nearby Weather Stations

Station Location Temp. Windchill Dew Point Humidity Wind Precip. Elev Updated Type
                   

Watches & Warnings

There are currently no watches in effect.